ARSAT 2

Last updated on Mon Sep 15 2025 00:02:48 GMT+0000 (Coordinated Universal Time)

1 40941U 15054B 25257.14766921 .00000000 00000+0 00000+0 0 9998 2 40941 0.0127 120.6882 0001966 51.4422 153.4012 1.00270039 36532
UTC large
Height (km)
Speed (km/s)
/
Latitude / Longitude
Inclination (degrees)
Orbital Period (minutes)
Azimuth
Elevation
Range (km)
Doppler Factor

Next 0 passes for location: London (51.5072 / 0.1276)

Sorry there are no passes over London.